GW2622 Weather Reports


time (UTC)temp
C
wind
direction
speed
KPH
gust
KPH
rain 1hr
cm
rain 24hr
cm
rain mn
cm
humidity
%
barometer
mb
20260906172453 28 347 3.2 9.7 0.00 0.00 0.00 84 1018.2
20260906171948 28 55 3.2 11.3 0.00 0.00 0.00 86 1018.1
20260906171443 28 314 3.2 9.7 0.00 0.00 0.00 84 1018.0
20260906170939 28 84 8.0 11.3 0.00 0.00 0.00 85 1018.0
20260906170435 28 358 6.4 12.9 0.00 0.00 0.00 85 1018.2
20260906165932 28 54 8.0 9.7 0.00 0.00 0.00 84 1018.0
20260906165431 28 82 1.6 14.5 0.00 0.00 0.00 84 1018.1
20260906164926 28 71 12.9 16.1 0.00 0.00 0.00 83 1018.0
20260906164424 28 249 1.6 9.7 0.00 0.00 0.00 82 1017.9
20260906163920 28 29 3.2 17.7 0.00 0.00 0.00 85 1018.1
20260906163411 28 328 0.0 8.0 0.00 0.00 0.00 84 1018.1
20260906162909 28 154 4.8 9.7 0.00 0.00 0.00 84 1018.3
20260906162408 28 206 8.0 9.7 0.00 0.00 0.00 84 1018.3
20260906161903 28 101 11.3 12.9 0.00 0.00 0.00 84 1018.4
20260906161402 28 94 0.0 11.3 0.00 0.00 0.00 83 1018.4
20260906160901 28 65 1.6 12.9 0.00 0.00 0.00 85 1018.5
20260906160354 28 192 4.8 11.3 0.00 0.00 0.00 84 1018.4
20260906155853 28 153 8.0 12.9 0.00 0.00 0.00 85 1018.5
20260906155346 28 118 9.7 12.9 0.00 0.00 0.00 83 1018.4
20260906154838 27 34 8.0 11.3 0.00 0.00 0.00 85 1018.3
20260906154332 27 52 3.2 8.0 0.00 0.00 0.00 85 1018.3
20260906153830 26 87 1.6 12.9 0.00 0.00 0.00 88 1018.6
20260906153324 26 185 3.2 11.3 0.00 0.00 0.00 88 1018.4
20260906152820 26 56 0.0 3.2 0.00 0.00 0.00 89 1018.6
20260906152315 26 198 6.4 9.7 0.00 0.00 0.00 89 1018.6
20260906151814 25 281 3.2 9.7 0.00 0.00 0.00 90 1018.6
20260906151310 25 177 8.0 11.3 0.00 0.00 0.00 91 1018.7
20260906150805 26 250 3.2 8.0 0.00 0.00 0.00 90 1018.6
20260906150301 25 201 1.6 8.0 0.00 0.00 0.00 91 1018.5
20260906145759 25 50 4.8 8.0 0.00 0.00 0.00 90 1018.7
20260906145258 25 299 1.6 8.0 0.00 0.00 0.00 91 1018.7
20260906144753 25 197 8.0 11.3 0.00 0.00 0.00 91 1018.7
20260906144248 25 123 4.8 4.8 0.00 0.00 0.00 91 1018.6
20260906143748 25 243 3.2 16.1 0.00 0.00 0.00 91 1018.6
20260906143245 26 106 3.2 9.7 0.00 0.00 0.00 88 1018.7
20260906142744 26 172 3.2 11.3 0.00 0.00 0.00 89 1018.7
20260906142240 25 171 12.9 16.1 0.00 0.00 0.00 90 1018.8
20260906141738 25 158 3.2 11.3 0.00 0.00 0.00 91 1018.8
20260906141233 25 214 3.2 9.7 0.00 0.00 0.00 92 1018.7
20260906140732 25 176 4.8 14.5 0.00 0.00 0.00 93 1018.8
20260906140228 25 175 1.6 14.5 0.00 0.00 0.00 93 1018.6
20260906135724 24 142 6.4 11.3 0.00 0.00 0.00 94 1018.7
20260906135221 24 141 8.0 9.7 0.00 0.00 0.00 94 1018.7
20260906134716 23 222 3.2 9.7 0.00 0.00 0.00 96 1018.8
20260906134211 23 162 9.7 9.7 0.00 0.00 0.00 97 1018.8
20260906133707 23 172 4.8 8.0 0.00 0.00 0.00 97 1018.7
20260906133202 23 304 3.2 11.3 0.00 0.00 0.00 97 1018.7
20260906132657 23 164 3.2 4.8 0.00 0.00 0.00 98 1018.6
20260906132152 23 218 1.6 8.0 0.00 0.00 0.00 98 1018.5
20260906131647 23 201 1.6 8.0 0.00 0.00 0.00 98 1018.7
20260906131137 23 306 0.0 4.8 0.00 0.00 0.00 98 1018.7
20260906130632 23 134 1.6 3.2 0.00 0.00 0.00 98 1018.9
20260906130127 23 214 4.8 4.8 0.00 0.00 0.00 98 1018.6
20260906125624 23 223 3.2 8.0 0.00 0.00 0.00 99 1018.8
20260906125118 22 182 4.8 8.0 0.00 0.00 0.00 99 1018.6
20260906124614 22 194 3.2 9.7 0.00 0.00 0.00 99 1018.6
20260906124109 22 247 1.6 3.2 0.00 0.00 0.00 99 1018.4
20260906123608 22 301 0.0 3.2 0.00 0.00 0.00 99 1018.4
20260906123103 22 313 0.0 1.6 0.00 0.00 0.00 99 1018.2
20260906122603 22 241 0.0 8.0 0.00 0.00 0.00 99 1018.0
20260906122058 22 189 4.8 8.0 0.00 0.00 0.00 99 1017.9
20260906121554 22 256 1.6 3.2 0.00 0.00 0.00 99 1018.0
20260906121051 22 186 6.4 9.7 0.00 0.00 0.00 99 1017.9
20260906120546 22 290 0.0 4.8 0.00 0.00 0.00 99 1017.9
20260906120043 22 203 1.6 3.2 0.00 0.00 0.00 99 1017.9
20260906115542 22 242 1.6 3.2 0.00 0.00 0.00 99 1017.8
20260906115038 22 85 3.2 11.3 0.00 0.00 0.00 99 1017.5
20260906114532 22 221 1.6 8.0 0.00 0.00 0.00 99 1017.6
20260906114028 22 193 4.8 8.0 0.00 0.00 0.00 99 1017.3
20260906113527 22 263 1.6 4.8 0.00 0.00 0.00 99 1017.3
20260906113022 22 248 1.6 9.7 0.00 0.00 0.00 99 1017.5
20260906112517 22 98 6.4 11.3 0.00 0.00 0.00 99 1017.3
20260906112013 22 231 1.6 8.0 0.00 0.00 0.00 99 1017.2
20260906111507 22 91 3.2 4.8 0.00 0.00 0.00 99 1017.2
20260906111002 22 225 1.6 9.7 0.00 0.00 0.00 99 1017.3
20260906110456 22 263 3.2 4.8 0.00 0.00 0.00 99 1017.5
20260906105955 22 12 1.6 8.0 0.00 0.00 0.00 99 1017.3
20260906105452 22 71 4.8 9.7 0.00 0.00 0.00 99 1017.6
20260906104948 22 280 0.0 4.8 0.00 0.00 0.00 99 1017.6
20260906104446 22 94 4.8 11.3 0.00 0.00 0.00 99 1017.5
20260906103945 22 61 4.8 8.0 0.00 0.00 0.00 99 1017.5
20260906103444 22 100 4.8 4.8 0.00 0.00 0.00 99 1017.6
20260906102939 22 79 0.0 4.8 0.00 0.00 0.00 99 1017.5
20260906102439 22 334 1.6 4.8 0.00 0.00 0.00 99 1017.5
20260906101933 22 98 6.4 8.0 0.00 0.00 0.00 99 1017.6
20260906101428 22 12 0.0 8.0 0.00 0.00 0.00 99 1017.5
20260906100923 22 321 0.0 3.2 0.00 0.00 0.00 99 1017.5
20260906100418 22 64 1.6 3.2 0.00 0.00 0.00 99 1017.3
20260906095912 23 72 4.8 8.0 0.00 0.00 0.00 99 1017.6
20260906095408 23 169 3.2 9.7 0.00 0.00 0.00 99 1017.2
20260906094902 23 310 0.0 4.8 0.00 0.00 0.00 99 1017.5
20260906094356 23 91 1.6 4.8 0.00 0.00 0.00 99 1017.5
20260906093847 23 135 1.6 8.0 0.00 0.00 0.00 99 1017.5
20260906093343 23 97 4.8 9.7 0.00 0.00 0.00 99 1017.5
20260906092843 23 28 1.6 8.0 0.00 0.00 0.00 99 1017.5
20260906092337 23 264 1.6 8.0 0.00 0.00 0.00 99 1017.3
20260906091833 23 102 6.4 8.0 0.00 0.00 0.00 98 1017.0
20260906091329 23 92 4.8 11.3 0.00 0.00 0.00 98 1017.1
20260906090826 23 262 0.0 4.8 0.00 0.00 0.00 99 1017.1
20260906090325 23 136 3.2 8.0 0.00 0.00 0.00 98 1016.9
20260906085824 23 65 8.0 12.9 0.00 0.00 0.00 98 1016.9
20260906085318 23 72 1.6 11.3 0.00 0.00 0.00 98 1016.7
20260906084813 23 160 9.7 11.3 0.00 0.00 0.00 98 1016.8
20260906084312 23 246 1.6 8.0 0.00 0.00 0.00 98 1016.7
20260906083807 23 196 4.8 4.8 0.00 0.00 0.00 98 1016.8
20260906083303 23 176 1.6 8.0 0.00 0.00 0.00 99 1016.7
20260906082757 23 79 8.0 11.3 0.00 0.00 0.00 98 1016.5
20260906082252 23 84 6.4 9.7 0.00 0.00 0.00 98 1016.6
20260906081748 23 120 4.8 9.7 0.00 0.00 0.00 98 1016.7
20260906081243 23 142 1.6 9.7 0.00 0.00 0.00 98 1016.7
20260906080739 23 81 1.6 11.3 0.00 0.00 0.00 99 1016.8
20260906080236 23 54 4.8 14.5 0.00 0.00 0.00 99 1016.8
20260906075729 23 45 3.2 8.0 0.00 0.00 0.00 99 1016.7
20260906075224 23 138 4.8 8.0 0.00 0.00 0.00 99 1016.5
20260906074719 23 106 4.8 9.7 0.00 0.00 0.00 99 1016.5
20260906074218 24 4 4.8 9.7 0.00 0.00 0.00 99 1016.5
20260906073714 24 97 3.2 9.7 0.00 0.00 0.00 99 1016.8
20260906073209 24 6 0.0 8.0 0.00 0.00 0.00 98 1016.7
20260906072704 24 49 1.6 11.3 0.00 0.00 0.00 98 1016.7
20260906072159 24 55 1.6 8.0 0.00 0.00 0.00 98 1016.7
20260906071656 24 108 3.2 8.0 0.00 0.00 0.00 98 1016.6
20260906071155 25 72 3.2 4.8 0.00 0.00 0.00 98 1016.5
20260906070652 25 202 4.8 9.7 0.00 0.00 0.00 98 1016.7
20260906070147 25 163 6.4 11.3 0.00 0.00 0.00 98 1016.4
20260906065647 25 228 0.0 4.8 0.00 0.00 0.00 98 1016.7
20260906065142 25 166 3.2 4.8 0.00 0.00 0.00 98 1016.8
20260906064637 25 104 6.4 9.7 0.00 0.00 0.00 98 1016.6
20260906064132 25 47 8.0 12.9 0.00 0.00 0.00 98 1016.6
20260906063627 25 113 11.3 14.5 0.00 0.00 0.00 99 1016.6
20260906063118 25 353 0.0 9.7 0.00 0.00 0.00 99 1016.7
20260906062614 25 79 3.2 11.3 0.00 0.00 0.00 99 1016.6
20260906062112 25 85 0.0 8.0 0.00 0.00 0.00 99 1016.8
20260906061609 25 70 3.2 8.0 0.00 0.00 0.00 99 1016.9
20260906061108 25 308 0.0 3.2 0.00 0.00 0.00 99 1016.8
20260906060605 25 132 6.4 8.0 0.00 0.00 0.00 99 1016.7
20260906055557 25 80 3.2 9.7 0.00 0.00 0.00 98 1016.8
20260906055052 25 302 0.0 4.8 0.00 0.00 0.00 98 1016.9
20260906054547 25 229 3.2 4.8 0.00 0.00 0.00 98 1016.9
20260906054042 25 103 3.2 4.8 0.00 0.00 0.00 98 1016.6
20260906053538 26 74 8.0 9.7 0.00 0.00 0.00 98 1016.7
20260906053034 26 20 1.6 9.7 0.00 0.00 0.00 98 1016.9
20260906052529 26 97 4.8 11.3 0.00 0.00 0.00 98 1017.0
20260906052026 26 89 3.2 14.5 0.00 0.00 0.00 97 1016.8
20260906051521 26 79 4.8 12.9 0.00 0.00 0.00 97 1016.8
20260906051017 26 53 3.2 9.7 0.00 0.00 0.00 97 1016.5
20260906050512 26 76 4.8 4.8 0.00 0.00 0.00 97 1016.6
20260906050006 26 95 1.6 11.3 0.00 0.00 0.00 97 1016.6
20260906045505 26 78 4.8 8.0 0.00 0.00 0.00 97 1016.6
20260906045001 25 72 4.8 4.8 0.00 0.00 0.00 98 1016.6
20260906044455 25 123 4.8 4.8 0.00 0.00 0.00 98 1016.6
20260906043951 25 7 1.6 4.8 0.00 0.00 0.00 98 1016.7
20260906043447 25 351 0.0 1.6 0.00 0.00 0.00 98 1016.5
20260906042943 25 351 0.0 0.0 0.00 0.00 0.00 98 1016.6
20260906042442 25 50 1.6 1.6 0.00 0.00 0.00 98 1016.5
20260906041936 25 14 1.6 3.2 0.00 0.00 0.00 98 1016.4
20260906041432 25 349 0.0 1.6 0.00 0.00 0.00 98 1016.3
20260906040926 26 349 0.0 0.0 0.00 0.00 0.00 97 1016.3
20260906040422 26 349 0.0 1.6 0.00 0.00 0.00 97 1016.3
20260906035917 26 358 1.6 1.6 0.00 0.00 0.00 97 1016.2
20260906035412 26 354 1.6 1.6 0.00 0.00 0.00 97 1016.2
20260906034908 26 332 0.0 0.0 0.00 0.00 0.00 97 1016.2
20260906034402 26 343 0.0 1.6 0.00 0.00 0.00 97 1016.4
20260906033858 26 352 0.0 1.6 0.00 0.00 0.00 97 1016.1
20260906033357 26 351 0.0 0.0 0.00 0.00 0.00 97 1016.2
20260906032853 26 351 0.0 0.0 0.00 0.00 0.00 96 1016.3
20260906032349 26 351 0.0 0.0 0.00 0.00 0.00 96 1016.2
20260906031844 26 351 0.0 0.0 0.00 0.00 0.00 95 1016.1
20260906031339 26 351 0.0 0.0 0.00 0.00 0.00 95 1016.3
20260906030839 26 352 0.0 1.6 0.00 0.00 0.00 95 1015.9
20260906030335 26 353 0.0 0.0 0.00 0.00 0.00 95 1016.0
20260906025829 26 352 0.0 0.0 0.00 0.00 0.00 95 1016.1
20260906025323 26 352 0.0 0.0 0.00 0.00 0.00 94 1015.9
20260906024822 27 353 0.0 1.6 0.00 0.00 0.00 94 1015.9
20260906024321 27 351 0.0 0.0 0.00 0.00 0.00 94 1015.8
20260906023817 27 344 0.0 0.0 0.00 0.00 0.00 93 1015.8
20260906023312 27 342 0.0 0.0 0.00 0.00 0.00 93 1015.7
20260906022808 27 342 0.0 8.0 0.00 0.00 0.00 92 1015.4
20260906022306 27 349 0.0 1.6 0.00 0.00 0.00 92 1015.4
20260906021759 27 351 0.0 3.2 0.00 0.00 0.00 92 1015.5
20260906021258 27 7 0.0 4.8 0.00 0.00 0.00 92 1015.5
20260906020752 27 79 3.2 3.2 0.00 0.00 0.00 92 1015.3
20260906020246 27 35 1.6 3.2 0.00 0.00 0.00 92 1015.3
20260906015741 27 351 0.0 3.2 0.00 0.00 0.00 92 1015.2
20260906015239 27 342 0.0 1.6 0.00 0.00 0.00 92 1015.1
20260906014734 27 345 0.0 1.6 0.00 0.00 0.00 92 1015.1
20260906014230 27 64 1.6 3.2 0.00 0.00 0.00 91 1014.9
20260906013721 27 301 0.0 3.2 0.00 0.00 0.00 91 1014.8
20260906013221 27 318 0.0 1.6 0.00 0.00 0.00 91 1014.9
20260906012715 27 337 0.0 1.6 0.00 0.00 0.00 91 1014.9
20260906012210 28 335 0.0 0.0 0.00 0.00 0.00 91 1014.8
20260906011705 28 335 0.0 3.2 0.00 0.00 0.00 90 1014.8
20260906011200 28 353 1.6 1.6 0.00 0.00 0.00 90 1014.8
20260906010655 28 26 1.6 3.2 0.00 0.00 0.00 90 1014.8
20260906010152 28 344 0.0 1.6 0.00 0.00 0.00 90 1014.8
20260906005651 28 339 0.0 1.6 0.00 0.00 0.00 89 1014.7
20260906005151 28 351 0.0 1.6 0.00 0.00 0.00 89 1014.7
20260906004649 28 349 0.0 0.0 0.00 0.00 0.00 88 1014.8
20260906004144 29 349 0.0 0.0 0.00 0.00 0.00 88 1014.6
20260906003640 29 348 0.0 1.6 0.00 0.00 0.00 86 1014.6
20260906003136 29 80 3.2 3.2 0.00 0.00 0.00 85 1014.5
20260906002630 30 357 0.0 4.8 0.00 0.00 0.00 85 1014.5
20260906002119 30 352 1.6 3.2 0.00 0.00 0.00 84 1014.7
20260906001615 30 356 1.6 4.8 0.00 0.00 0.00 83 1014.6
20260906001114 30 348 1.6 3.2 0.00 0.00 0.00 82 1014.4
20260906000611 30 43 3.2 4.8 0.00 0.00 0.00 81 1014.6
20260906000106 30 40 4.8 9.7 0.00 0.00 0.00 81 1014.6
20260905235605 30 85 4.8 9.7 0.00 0.00 0.00 80 1014.5
20260905235100 31 80 6.4 11.3 0.00 0.00 0.00 79 1014.5
20260905234555 31 111 8.0 9.7 0.00 0.00 0.00 78 1014.6
20260905234050 31 41 4.8 12.9 0.00 0.00 0.00 79 1014.5
20260905233544 31 23 3.2 9.7 0.00 0.00 0.00 79 1014.6
20260905233045 31 87 4.8 8.0 0.00 0.00 0.00 79 1014.5
20260905232540 31 29 0.0 4.8 0.00 0.00 0.00 79 1014.5
20260905232035 31 26 1.6 4.8 0.00 0.00 0.00 77 1014.4
20260905231531 31 58 4.8 9.7 0.00 0.00 0.00 76 1014.5
20260905231027 32 337 0.0 4.8 0.00 0.00 0.00 77 1014.4
20260905230526 32 34 4.8 8.0 0.00 0.00 0.00 77 1014.6
20260905230025 32 356 1.6 1.6 0.00 0.00 0.00 76 1014.6
20260905225519 32 332 3.2 9.7 0.00 0.00 0.00 76 1014.5
20260905225015 32 24 3.2 11.3 0.00 0.00 0.00 76 1014.5
20260905224509 32 344 1.6 4.8 0.00 0.00 0.00 78 1014.5
20260905224009 32 334 0.0 4.8 0.00 0.00 0.00 77 1014.5
20260905223507 32 4 3.2 9.7 0.00 0.00 0.00 77 1014.2
20260905223001 32 343 4.8 11.3 0.00 0.00 0.00 76 1014.4
20260905222456 32 43 3.2 9.7 0.00 0.00 0.00 76 1014.5
20260905221951 33 18 3.2 4.8 0.00 0.00 0.00 75 1014.3
20260905221448 32 28 1.6 8.0 0.00 0.00 0.00 75 1014.4
20260905220944 32 102 6.4 9.7 0.00 0.00 0.00 75 1014.5
20260905220440 32 40 4.8 8.0 0.00 0.00 0.00 75 1014.4
20260905215938 32 97 3.2 3.2 0.00 0.00 0.00 74 1014.4
20260905215434 33 236 1.6 9.7 0.00 0.00 0.00 73 1014.6
20260905214930 32 336 1.6 4.8 0.00 0.00 0.00 77 1014.4
20260905214425 32 297 1.6 4.8 0.00 0.00 0.00 75 1014.4
20260905213920 32 327 1.6 8.0 0.00 0.00 0.00 74 1014.2
20260905213416 32 47 4.8 8.0 0.00 0.00 0.00 74 1014.3
20260905212912 32 328 1.6 11.3 0.00 0.00 0.00 75 1014.5
20260905212406 32 322 1.6 9.7 0.00 0.00 0.00 77 1014.6
20260905211905 32 338 1.6 4.8 0.00 0.00 0.00 76 1014.5
20260905211401 32 139 3.2 8.0 0.00 0.00 0.00 76 1014.5
20260905210857 32 320 3.2 4.8 0.00 0.00 0.00 78 1014.1
20260905210356 32 48 1.6 3.2 0.00 0.00 0.00 75 1014.4
20260905205856 32 14 3.2 8.0 0.00 0.00 0.00 77 1014.4
20260905205350 32 61 3.2 4.8 0.00 0.00 0.00 75 1014.5
20260905204844 32 327 1.6 4.8 0.00 0.00 0.00 76 1014.4
20260905204340 32 267 1.6 8.0 0.00 0.00 0.00 73 1014.5
20260905203833 33 2 6.4 11.3 0.00 0.00 0.00 71 1014.5
20260905203330 34 48 6.4 12.9 0.00 0.00 0.00 69 1014.6
20260905202825 33 314 0.0 4.8 0.00 0.00 0.00 70 1014.6
20260905202319 34 23 3.2 8.0 0.00 0.00 0.00 69 1014.6
20260905201815 33 284 3.2 3.2 0.00 0.00 0.00 68 1014.6
20260905201311 33 329 0.0 9.7 0.00 0.00 0.00 71 1014.6
20260905200805 33 344 4.8 9.7 0.00 0.00 0.00 72 1014.7
20260905200301 33 351 3.2 9.7 0.00 0.00 0.00 71 1014.8
20260905195759 33 350 9.7 12.9 0.00 0.00 0.00 70 1014.9
20260905195254 33 317 3.2 8.0 0.00 0.00 0.00 69 1014.9
20260905194749 33 93 8.0 12.9 0.00 0.00 0.00 69 1015.0
20260905194248 33 37 6.4 11.3 0.00 0.00 0.00 69 1015.2
20260905193743 33 60 3.2 8.0 0.00 0.00 0.00 69 1015.4
20260905193237 33 15 11.3 12.9 0.00 0.00 0.00 71 1015.5
20260905192727 33 6 6.4 11.3 0.00 0.00 0.00 72 1015.3
20260905192224 32 62 1.6 8.0 0.00 0.00 0.00 72 1015.4
20260905191723 33 350 6.4 14.5 0.00 0.00 0.00 71 1015.7
20260905191221 32 308 6.4 14.5 0.00 0.00 0.00 73 1015.7
20260905190720 32 10 9.7 14.5 0.00 0.00 0.00 69 1015.6
20260905190219 32 11 11.3 12.9 0.00 0.00 0.00 69 1015.9
20260905185718 32 7 8.0 9.7 0.00 0.00 0.00 67 1016.0
20260905185213 32 338 9.7 11.3 0.00 0.00 0.00 69 1015.9
20260905184713 32 16 4.8 9.7 0.00 0.00 0.00 71 1016.0
20260905184212 32 12 3.2 11.3 0.00 0.00 0.00 71 1016.0
20260905183706 32 352 4.8 11.3 0.00 0.00 0.00 72 1016.1
20260905183202 33 19 6.4 9.7 0.00 0.00 0.00 71 1016.1
20260905182700 32 1 3.2 14.5 0.00 0.00 0.00 72 1016.0
20260905182154 32 325 3.2 9.7 0.00 0.00 0.00 70 1016.0
20260905181650 33 333 4.8 14.5 0.00 0.00 0.00 69 1016.2
20260905181143 33 4 6.4 9.7 0.00 0.00 0.00 68 1016.2
20260905180638 33 6 4.8 8.0 0.00 0.00 0.00 67 1016.1
20260905180133 32 357 6.4 12.9 0.00 0.00 0.00 67 1016.0
20260905175632 32 352 8.0 9.7 0.00 0.00 0.00 69 1016.4
20260905175128 33 18 6.4 9.7 0.00 0.00 0.00 67 1016.3
20260905174624 33 20 4.8 8.0 0.00 0.00 0.00 64 1016.2
20260905174118 34 334 4.8 8.0 0.00 0.00 0.00 65 1016.2
20260905173615 33 303 0.0 4.8 0.00 0.00 0.00 66 1016.3
20260905173110 33 312 0.0 4.8 0.00 0.00 0.00 67 1016.3
20260905172608 33 297 4.8 4.8 0.00 0.00 0.00 67 1016.2